Wenatchee, WA

5:07 AM PDT on June 27, 2017 (GMT -0700)
Pangborn Memorial

Weather History for KEAT - July, 2014

Change the Weather History Date:

Monday, July 21, 2014

  Actual Average Record
Temperature  
Mean Temperature 65 °F 76 °F  
Max Temperature 76 °F 89 °F 105 °F (1994)
Min Temperature 53 °F 63 °F 51 °F (1984)
Degree Days  
Heating Degree Days 0 0  
Month to date heating degree days 0 2  
Since 1 June heating degree days 191 60  
Since 1 July heating degree days 0 2  
Cooling Degree Days 0 11  
Month to date cooling degree days 157 180  
Year to date cooling degree days 157 619  
Since 1 June cooling degree days 157 472  
Growing Degree Days 22 (Base 50)    
Moisture  
Dew Point 41 °F    
Average Humidity 34    
Maximum Humidity 46    
Minimum Humidity 22    
Precipitation  
Precipitation 0.00 in 0.01 in 0.04 in (1972)
Month to date precipitation 0.97 0.20  
Year to date precipitation 10.72 4.45  
Snow  
Snow 0.00 in - - ()
Month to date snowfall 0.0  
Since 1 June snowfall 0.0  
Snow Depth 0.00 in    
Sea Level Pressure  
Sea Level Pressure 29.89 in    
Wind  
Wind Speed 11 mph (East)    
Max Wind Speed 18 mph    
Max Gust Speed -    
Visibility 10 miles    
Events      
T = Trace of Precipitation, MM = Missing Value Source: NWS Daily Summary

Daily Weather History Graph

Daily Weather History Graph

Search for Another Location

Airport or City:

Trip Planner

Search our weather history database for the weather conditions in past years. The results will help you decide how hot, cold, wet, or windy it might be!

Date:

Astronomy

Jul. 21, 2014 Rise Set
Actual Time 5:25 AM PDT 8:47 PM PDT
Civil Twilight 4:48 AM PDT 9:25 PM PDT
Nautical Twilight 3:58 AM PDT 10:14 PM PDT
Astronomical Twilight 2:54 AM PDT 11:17 PM PDT
Moon 1:25 AM PDT (7/21) 4:31 PM PDT (7/21)
Length of Visible Light 16h 37m
Length of Day
15h 21m
Waning Crescent, 23% of the Moon is Illuminated
Jul 21
Waning Crescent
Jul 26
New
Aug 3
First Quarter
Aug 10
Full
Aug 17
Last Quarter

Hourly Weather History & Observations

Time (PDT) Temp. Dew Point Humidity Pressure Visibility Wind Dir Wind Speed Gust Speed Precip Events Conditions
12:55 AM 64.0 °F 39.0 °F 40% 29.79 in 10.0 mi WNW 13.8 mph - N/A   Clear
1:55 AM 64.0 °F 39.9 °F 41% 29.80 in 10.0 mi WNW 18.4 mph - N/A   Clear
2:55 AM 63.0 °F 39.9 °F 43% 29.81 in 10.0 mi West 11.5 mph - N/A   Clear
3:55 AM 63.0 °F 39.9 °F 43% 29.84 in 10.0 mi WNW 6.9 mph - N/A   Clear
4:55 AM 62.1 °F 39.9 °F 44% 29.86 in 10.0 mi West 11.5 mph - N/A   Clear
5:55 AM 61.0 °F 39.9 °F 46% 29.89 in 10.0 mi West 9.2 mph - N/A   Clear
6:55 AM 63.0 °F 41.0 °F 45% 29.91 in 10.0 mi West 9.2 mph - N/A   Clear
7:55 AM 66.0 °F 41.0 °F 40% 29.93 in 10.0 mi WNW 12.7 mph - N/A   Clear
8:55 AM 68.0 °F 39.9 °F 36% 29.94 in 10.0 mi NW 11.5 mph - N/A   Clear
9:55 AM 71.1 °F 39.0 °F 31% 29.94 in 10.0 mi NNW 6.9 mph - N/A   Clear
10:55 AM 73.0 °F 37.0 °F 27% 29.94 in 10.0 mi North 3.5 mph - N/A   Clear
11:55 AM 75.9 °F 37.0 °F 24% 29.94 in 10.0 mi East 6.9 mph - N/A   Clear
12:55 PM 78.1 °F 39.9 °F 25% 29.92 in 10.0 mi SE 11.5 mph - N/A   Clear
1:55 PM 80.1 °F 39.0 °F 23% 29.91 in 10.0 mi ESE 12.7 mph - N/A   Clear
2:55 PM 80.1 °F 41.0 °F 25% 29.90 in 10.0 mi ESE 10.4 mph - N/A   Clear
3:55 PM 81.0 °F 39.9 °F 23% 29.89 in 10.0 mi ESE 11.5 mph - N/A   Clear
4:55 PM 82.0 °F 39.0 °F 22% 29.88 in 10.0 mi ESE 10.4 mph - N/A   Clear
5:55 PM 82.0 °F 41.0 °F 23% 29.86 in 10.0 mi ESE 12.7 mph - N/A   Clear
6:55 PM 81.0 °F 43.0 °F 26% 29.87 in 10.0 mi ESE 11.5 mph - N/A   Clear
7:55 PM 79.0 °F 42.1 °F 27% 29.88 in 10.0 mi ESE 11.5 mph - N/A   Clear
8:55 PM 75.9 °F 44.1 °F 32% 29.89 in 10.0 mi ESE 11.5 mph - N/A   Clear
9:55 PM 73.9 °F 46.0 °F 37% 29.90 in 10.0 mi ESE 9.2 mph - N/A   Clear
10:55 PM 71.1 °F 46.9 °F 42% 29.90 in 10.0 mi East 9.2 mph - N/A   Clear
11:55 PM 70.0 °F 46.0 °F 42% 29.91 in 10.0 mi ENE 8.1 mph - N/A   Clear